When you browse on this site, cookies collect data to enhance your experience and personalize the content and advertising you see.
Visit our Privacy Policy to learn more. By continuing to use the site, you agree to this use of cookies and data.

Hourly Weather Cobán

Today, 5 July, Sunday

Time Temperature Precipitation Wind Pressure Humidity
00:00 +17°C° 0.2 mm 0 mps 654 mmHg 97%
01:00 +16°C° 0 mm 0 mps 654 mmHg 97%
02:00 +16°C° 0 mm 0 mps 653 mmHg 97%
03:00 +16°C° 0 mm 0 mps 653 mmHg 97%
04:00 +16°C° 0 mm 0 mps 653 mmHg 97%
05:00 +16°C° 0 mm 0 mps 653 mmHg 97%
06:00 +16°C° 0 mm 0 mps 653 mmHg 97%
07:00 +18°C° 0 mm 0 mps 654 mmHg 89%
08:00 +20°C° 0 mm 0 mps 655 mmHg 81%
09:00 +22°C° 0 mm 0 mps 655 mmHg 74%
10:00 +25°C° 0.2 mm 1 mps 655 mmHg 73%
11:00 +26°C° 0.2 mm 1 mps 655 mmHg 72%
12:00 +27°C° 0.2 mm 1 mps 655 mmHg 71%
13:00 +26°C° 1.1 mm 1 mps 655 mmHg 75%
14:00 +26°C° 1.1 mm 1 mps 654 mmHg 80%
15:00 +25°C° 1.1 mm 1 mps 653 mmHg 85%
16:00 +24°C° 0.6 mm 1 mps 653 mmHg 88%
17:00 +23°C° 0.6 mm 1 mps 653 mmHg 91%
18:00 +20°C° 0.6 mm 0 mps 653 mmHg 95%
19:00 +19°C° 0.1 mm 0 mps 653 mmHg 96%
20:00 +19°C° 0.1 mm 0 mps 653 mmHg 97%
21:00 +18°C° 0.1 mm 0 mps 654 mmHg 98%
22:00 +17°C° 0.2 mm 0 mps 654 mmHg 98%
23:00 +17°C° 0.2 mm 0 mps 654 mmHg 98%

Tomorrow, 6 July, Monday

Time Temperature Precipitation Wind Pressure Humidity
00:00 +17°C° 0.2 mm 0 mps 654 mmHg 98%
01:00 +17°C° 0.2 mm 0 mps 653 mmHg 98%
02:00 +17°C° 0.2 mm 0 mps 653 mmHg 98%
03:00 +16°C° 0.2 mm 0 mps 652 mmHg 98%
04:00 +16°C° 0.1 mm 0 mps 653 mmHg 98%
05:00 +16°C° 0.1 mm 0 mps 653 mmHg 98%
06:00 +16°C° 0.1 mm 0 mps 653 mmHg 98%
07:00 +19°C° 0 mm 0 mps 654 mmHg 89%
08:00 +21°C° 0 mm 0 mps 655 mmHg 80%
09:00 +23°C° 0 mm 0 mps 656 mmHg 70%
10:00 +25°C° 0.1 mm 0 mps 656 mmHg 64%
11:00 +28°C° 0.1 mm 1 mps 656 mmHg 57%
12:00 +29°C° 0.1 mm 1 mps 656 mmHg 50%
13:00 +28°C° 0.5 mm 1 mps 655 mmHg 57%
14:00 +27°C° 0.5 mm 1 mps 655 mmHg 63%
15:00 +27°C° 0.5 mm 1 mps 654 mmHg 70%
16:00 +25°C° 0.5 mm 1 mps 654 mmHg 76%
17:00 +22°C° 0.5 mm 0 mps 654 mmHg 83%
18:00 +21°C° 0.5 mm 0 mps 653 mmHg 89%
19:00 +19°C° 0 mm 0 mps 654 mmHg 91%
20:00 +20°C° 0 mm 1 mps 654 mmHg 92%
21:00 +19°C° 0 mm 1 mps 654 mmHg 94%
22:00 +19°C° 0 mm 1 mps 654 mmHg 94%
23:00 +19°C° 0 mm 1 mps 654 mmHg 95%

Day after tomorrow, 7 July, Tuesday

Time Temperature Precipitation Wind Pressure Humidity
00:00 +18°C° 0 mm 1 mps 654 mmHg 95%
01:00 +18°C° 0 mm 1 mps 654 mmHg 95%
02:00 +18°C° 0 mm 1 mps 654 mmHg 95%
03:00 +16°C° 0 mm 0 mps 653 mmHg 95%
04:00 +16°C° 0 mm 0 mps 653 mmHg 95%
05:00 +16°C° 0 mm 0 mps 653 mmHg 95%
06:00 +16°C° 0 mm 0 mps 653 mmHg 95%
07:00 +20°C° 0 mm 1 mps 654 mmHg 85%
08:00 +23°C° 0 mm 1 mps 655 mmHg 76%
09:00 +25°C° 0 mm 1 mps 656 mmHg 66%
10:00 +26°C° 0.1 mm 1 mps 656 mmHg 64%
11:00 +27°C° 0.1 mm 1 mps 656 mmHg 62%
12:00 +28°C° 0.1 mm 1 mps 656 mmHg 59%
13:00 +27°C° 0.6 mm 1 mps 655 mmHg 63%
14:00 +27°C° 0.6 mm 1 mps 655 mmHg 66%
15:00 +26°C° 0.6 mm 1 mps 654 mmHg 70%
16:00 +25°C° 0.2 mm 1 mps 654 mmHg 75%
17:00 +24°C° 0.2 mm 1 mps 654 mmHg 80%
18:00 +23°C° 0.2 mm 1 mps 654 mmHg 86%
19:00 +21°C° 0 mm 1 mps 654 mmHg 89%
20:00 +20°C° 0 mm 1 mps 654 mmHg 92%
21:00 +19°C° 0 mm 1 mps 654 mmHg 95%
22:00 +19°C° 0 mm 1 mps 654 mmHg 95%
23:00 +17°C° 0 mm 0 mps 654 mmHg 95%

8 July, Wednesday

Time Temperature Precipitation Wind Pressure Humidity
00:00 +16°C° 0 mm 0 mps 654 mmHg 96%
01:00 +16°C° 0 mm 0 mps 654 mmHg 96%
02:00 +16°C° 0 mm 0 mps 653 mmHg 96%
03:00 +16°C° 0 mm 0 mps 653 mmHg 96%
04:00 +16°C° 0 mm 0 mps 653 mmHg 95%
05:00 +15°C° 0 mm 0 mps 653 mmHg 94%
06:00 +15°C° 0 mm 0 mps 653 mmHg 93%
07:00 +18°C° 0 mm 0 mps 654 mmHg 83%
08:00 +20°C° 0 mm 0 mps 655 mmHg 72%
09:00 +25°C° 0 mm 1 mps 656 mmHg 62%
10:00 +26°C° 0.1 mm 1 mps 656 mmHg 61%
11:00 +27°C° 0.1 mm 1 mps 656 mmHg 61%
12:00 +27°C° 0.1 mm 1 mps 656 mmHg 61%
13:00 +27°C° 1 mm 1 mps 655 mmHg 68%
14:00 +26°C° 1 mm 1 mps 654 mmHg 75%
15:00 +25°C° 1 mm 1 mps 653 mmHg 83%
16:00 +24°C° 0.5 mm 1 mps 653 mmHg 87%
17:00 +23°C° 0.5 mm 1 mps 653 mmHg 91%
18:00 +20°C° 0.5 mm 0 mps 653 mmHg 95%
19:00 +19°C° 0.2 mm 0 mps 653 mmHg 96%
20:00 +19°C° 0.2 mm 0 mps 654 mmHg 97%
21:00 +18°C° 0.2 mm 0 mps 654 mmHg 98%
22:00 +18°C° 0 mm 0 mps 654 mmHg 98%
23:00 +17°C° 0 mm 0 mps 654 mmHg 98%

9 July, Thursday

Time Temperature Precipitation Wind Pressure Humidity
00:00 +17°C° 0 mm 0 mps 654 mmHg 98%
01:00 +17°C° 0 mm 0 mps 653 mmHg 98%
02:00 +16°C° 0 mm 0 mps 653 mmHg 98%
03:00 +16°C° 0 mm 0 mps 652 mmHg 98%
04:00 +16°C° 0 mm 0 mps 652 mmHg 97%
05:00 +16°C° 0 mm 0 mps 653 mmHg 97%
06:00 +16°C° 0 mm 0 mps 653 mmHg 97%
07:00 +18°C° 0 mm 0 mps 654 mmHg 90%
08:00 +20°C° 0 mm 0 mps 654 mmHg 84%
09:00 +24°C° 0 mm 1 mps 655 mmHg 77%
10:00 +25°C° 0.1 mm 1 mps 655 mmHg 72%
11:00 +26°C° 0.1 mm 1 mps 655 mmHg 67%
12:00 +27°C° 0.1 mm 1 mps 655 mmHg 61%
13:00 +27°C° 0.6 mm 1 mps 655 mmHg 65%
14:00 +26°C° 0.6 mm 1 mps 654 mmHg 69%
15:00 +26°C° 0.6 mm 1 mps 653 mmHg 73%
16:00 +25°C° 0.2 mm 1 mps 653 mmHg 78%
17:00 +24°C° 0.2 mm 1 mps 653 mmHg 83%
18:00 +23°C° 0.2 mm 1 mps 653 mmHg 88%
19:00 +21°C° 0 mm 1 mps 653 mmHg 90%
20:00 +20°C° 0 mm 1 mps 654 mmHg 92%
21:00 +19°C° 0 mm 1 mps 654 mmHg 95%
22:00 +19°C° 0 mm 1 mps 654 mmHg 95%
23:00 +19°C° 0 mm 1 mps 654 mmHg 95%

10 July, Friday

Time Temperature Precipitation Wind Pressure Humidity
00:00 +18°C° 0 mm 1 mps 654 mmHg 94%
01:00 +18°C° 0 mm 1 mps 654 mmHg 93%
02:00 +18°C° 0 mm 1 mps 653 mmHg 92%
03:00 +16°C° 0 mm 0 mps 653 mmHg 91%
04:00 +15°C° 0 mm 0 mps 653 mmHg 91%
05:00 +15°C° 0 mm 0 mps 653 mmHg 91%
06:00 +15°C° 0 mm 0 mps 653 mmHg 92%
07:00 +20°C° 0 mm 1 mps 654 mmHg 83%
08:00 +22°C° 0 mm 1 mps 655 mmHg 74%
09:00 +25°C° 0 mm 1 mps 656 mmHg 64%
10:00 +25°C° 0.6 mm 1 mps 656 mmHg 68%
11:00 +25°C° 0.6 mm 1 mps 656 mmHg 71%
12:00 +25°C° 0.6 mm 1 mps 655 mmHg 74%
13:00 +25°C° 1.7 mm 1 mps 655 mmHg 78%
14:00 +24°C° 1.7 mm 1 mps 654 mmHg 81%
15:00 +24°C° 1.7 mm 1 mps 654 mmHg 85%
16:00 +23°C° 1.4 mm 1 mps 654 mmHg 88%
17:00 +22°C° 1.4 mm 1 mps 654 mmHg 92%
18:00 +21°C° 1.4 mm 1 mps 654 mmHg 96%
19:00 +20°C° 0.5 mm 1 mps 654 mmHg 96%
20:00 +19°C° 0.5 mm 1 mps 654 mmHg 97%
21:00 +19°C° 0.5 mm 1 mps 654 mmHg 97%
22:00 +17°C° 0.5 mm 0 mps 654 mmHg 98%
23:00 +16°C° 0.5 mm 0 mps 654 mmHg 98%
Show more